Theta_e
294 291 287 290 290 291 289 287 286 288 293 289 289 289 291 294 294 294 294 300 301 302 306 307 310 312 311 311 309 307 305 307 335 344 342 341 341 343 344 346 348 348 348 347
291 288 294 294 293 292 290 287 286 290 292 290 289 290 292 293 293 292 299 300 301 301 304 308 309 311 311 311 312 313 306 306 317 341 343 338 340 341 344 344 346 346 349 348
289 294 297 295 292 291 288 286 286 287 290 290 288 285 288 292 294 298 299 300 301 302 303 305 307 308 309 310 311 313 313 307 310 328 339 335 337 337 338 339 340 342 345 349
291 295 295 292 291 291 285 291 290 289 285 281 287 278 284 289 292 296 298 299 301 302 303 304 305 305 306 308 310 310 314 315 314 316 333 336 336 334 337 339 341 343 344 344
292 291 291 289 291 293 289 292 290 288 283 282 282 279 282 288 290 293 296 301 302 302 303 303 304 305 306 306 306 307 309 311 315 317 323 333 334 335 333 337 337 341 342 344
292 297 294 292 295 294 294 289 286 283 281 275 280 280 280 285 290 294 298 302 303 301 302 303 303 304 304 305 305 304 306 307 312 317 319 322 329 330 328 330 333 335 338 341
291 292 295 297 291 292 290 283 274 274 273 275 282 282 283 289 293 297 298 300 301 300 300 301 302 301 303 302 302 303 304 304 308 312 318 321 323 328 329 329 332 332 334 337
284 284 292 297 292 288 286 283 275 270 272 276 285 279 285 293 295 299 300 300 299 297 297 299 300 300 301 301 301 302 302 303 306 309 314 320 324 328 328 328 330 331 333 337
284 286 295 296 294 293 286 280 285 277 278 280 280 284 290 293 295 298 298 298 296 296 297 297 300 300 300 301 301 301 301 303 305 308 312 318 323 328 330 331 333 335 335 337
290 283 292 295 294 293 288 290 279 277 271 275 279 280 283 288 290 292 293 294 296 296 296 297 299 298 301 301 301 301 301 301 304 308 310 318 320 325 332 334 333 331 333 334
291 284 287 290 288 287 286 282 284 282 285 276 276 278 288 288 291 290 293 295 294 295 295 296 297 299 301 300 300 300 301 301 304 307 309 315 320 328 330 331 330 331 332 332
291 285 281 286 293 292 289 287 285 276 278 282 281 282 295 293 292 293 294 298 294 295 296 296 297 300 299 299 299 299 301 302 304 305 307 312 319 323 326 328 329 329 330 331
290 281 275 281 284 288 286 288 288 288 285 282 281 282 293 293 294 296 295 294 295 296 297 298 299 298 298 298 299 300 300 301 303 305 306 307 314 320 320 321 325 329 329 328
299 285 283 279 283 284 284 287 290 290 284 284 285 286 291 293 292 293 292 294 295 296 297 297 296 296 297 298 299 300 301 302 302 303 303 305 308 318 318 320 323 323 327 328
291 283 285 288 289 289 288 288 288 287 288 284 287 287 291 293 292 291 293 294 294 294 294 294 295 296 297 297 298 299 301 302 302 302 302 304 307 314 319 323 323 325 326 328
288 283 284 283 289 288 286 289 289 290 290 289 289 287 291 292 293 292 293 293 292 292 293 294 295 297 296 297 297 298 299 300 301 301 301 303 305 311 317 318 321 324 324 326
285 282 281 279 287 288 281 286 288 288 289 285 283 289 290 292 293 293 292 292 291 292 293 294 296 296 296 296 297 297 298 300 300 300 301 303 306 310 320 321 319 319 320 321
284 283 283 283 282 272 284 292 292 288 290 291 291 290 293 293 294 294 294 292 291 292 293 294 295 295 295 296 297 297 299 299 299 299 301 303 306 315 321 320 318 318 316 314
288 285 279 275 275 282 285 290 286 286 286 290 291 293 294 294 293 291 292 293 293 293 293 294 296 295 296 296 297 298 298 299 299 299 300 303 306 314 318 317 314 312 311 311
288 290 281 278 274 272 282 291 294 292 282 294 294 292 291 290 283 287 292 294 293 294 294 294 295 295 295 296 298 297 298 298 298 299 300 303 307 315 317 315 312 310 308 305
281 280 278 277 278 281 288 291 294 280 284 294 295 293 289 287 289 291 293 293 294 294 294 295 295 294 295 297 297 297 298 299 301 301 301 304 307 315 316 313 311 307 305 302
279 275 275 279 277 273 292 291 283 288 293 295 293 292 290 290 291 292 293 293 293 292 293 294 293 294 296 297 298 298 300 303 303 301 302 304 309 314 311 309 307 305 303 300
279 285 283 284 280 288 293 291 295 297 293 292 288 291 290 290 291 292 291 291 292 292 293 294 293 293 295 297 299 299 302 304 301 300 301 305 314 310 308 306 304 302 302 300
286 289 284 286 288 290 292 296 297 298 295 295 292 291 292 291 291 291 291 291 291 292 291 292 292 293 294 298 301 301 301 301 300 300 302 311 308 307 307 306 305 303 301 300
290 291 288 287 290 292 295 296 297 295 294 291 293 293 292 292 290 290 290 290 290 290 291 292 292 293 295 298 300 301 301 300 300 302 309 307 306 305 302 301 304 303 303 302
289 288 286 286 293 292 294 296 296 292 290 292 291 292 292 291 290 290 289 290 289 289 291 291 293 295 297 299 300 301 302 303 304 306 305 302 301 301 301 298 295 293 295 295
Wind_Speed
4 6 2 5 5 5 3 3 5 6 7 4 7 9 9 11 9 10 5 5 7 7 7 8 9 10 11 10 11 10 7 9 6 9 7 6 9 9 8 9 14 13 12 12
6 2 6 3 3 4 4 3 4 7 6 4 10 22 11 9 8 2 3 5 7 7 9 11 12 13 12 11 9 13 9 8 7 7 8 4 5 7 9 7 7 8 10 12
6 8 0 4 1 1 2 3 3 7 5 5 7 8 4 2 2 3 3 3 4 5 7 9 12 11 13 14 14 13 13 7 5 8 3 3 3 3 3 3 5 10 13 13
5 4 2 3 2 3 3 3 4 7 4 8 3 9 4 2 7 4 5 5 5 5 5 6 10 13 12 13 10 10 11 11 7 7 5 11 10 10 8 10 11 10 13 14
9 2 2 2 1 2 7 3 5 5 3 4 4 1 8 2 5 7 6 5 5 2 2 6 9 9 9 9 9 10 10 10 11 7 6 6 9 6 5 6 9 10 9 11
4 4 2 1 2 3 3 4 4 4 3 2 3 4 6 4 5 3 2 6 4 6 8 7 5 8 11 12 13 12 12 12 11 9 6 8 8 8 4 4 6 6 6 7
8 4 1 2 3 2 8 7 6 8 6 6 2 4 11 8 7 6 7 6 1 5 7 8 9 10 13 17 15 16 17 16 12 11 8 7 10 9 10 9 6 5 6 4
1 7 3 1 2 4 1 6 6 5 3 6 5 8 8 5 5 4 5 6 6 3 5 6 8 10 12 14 16 17 17 19 16 13 11 9 9 7 7 5 4 3 2 4
2 5 4 2 3 5 2 2 2 2 1 4 4 7 9 6 6 5 8 6 8 7 6 8 10 7 10 15 17 14 16 15 16 15 12 9 8 8 7 7 6 5 6 5
4 7 5 3 2 1 5 7 2 3 3 6 6 6 9 7 10 9 8 8 9 5 8 7 9 11 11 15 13 13 13 13 14 13 12 10 9 9 9 9 11 10 6 7
3 4 6 2 5 8 2 2 2 3 4 4 5 6 7 8 11 10 8 8 7 7 8 9 11 10 13 12 10 13 13 13 13 10 13 13 10 10 9 7 7 9 7 7
3 4 5 13 13 2 6 8 8 6 6 6 4 14 11 11 10 6 8 14 3 7 9 8 10 13 14 12 11 12 12 11 11 12 11 12 10 7 7 5 6 5 6 4
2 2 5 10 6 1 4 5 4 1 3 13 11 10 2 5 7 12 7 7 9 12 14 14 15 14 15 12 13 11 12 12 11 10 10 12 11 7 5 3 2 2 5 5
6 5 10 9 14 4 8 10 9 8 7 11 14 23 18 17 9 8 5 6 10 14 15 16 15 15 14 12 13 12 11 9 11 10 11 12 10 8 5 5 5 7 1 3
3 7 8 12 19 14 17 20 19 16 21 14 22 17 19 14 9 6 5 7 15 19 19 18 15 14 13 13 14 13 13 10 9 11 12 12 10 9 7 6 4 1 12 9
1 7 4 5 13 12 14 16 19 18 16 15 17 16 3 6 6 6 11 13 19 19 18 17 15 18 19 19 16 14 12 12 9 11 13 12 11 12 5 5 3 5 4 5
4 3 1 6 5 9 8 7 3 3 2 4 6 9 5 10 18 18 13 16 20 19 16 16 19 17 17 18 18 15 13 11 10 11 12 12 10 12 3 5 7 7 5 7
4 2 2 6 4 3 5 1 2 3 9 8 11 4 8 18 21 17 12 18 16 15 20 21 18 18 19 17 16 15 12 11 10 10 12 10 9 10 2 5 6 8 8 7
2 1 4 2 3 12 6 4 3 5 17 7 0 9 20 14 22 20 7 7 18 23 22 20 16 18 18 17 15 15 14 10 10 11 11 10 7 8 5 6 6 8 11 9
1 2 4 3 3 6 4 3 7 1 12 3 13 15 16 16 15 24 23 20 21 21 19 18 18 18 17 17 14 14 13 11 12 10 10 9 6 5 3 5 7 6 10 9
5 5 2 3 5 9 4 5 3 3 5 17 16 14 14 15 13 25 24 23 22 19 20 18 17 16 17 16 14 14 15 14 10 10 9 9 5 4 4 6 7 9 11 12
3 1 3 2 4 8 4 11 1 7 18 18 12 13 17 21 23 21 21 20 21 22 20 18 16 16 16 15 13 14 16 14 7 8 9 8 6 5 8 11 10 10 10 16
4 6 2 7 8 9 18 12 13 11 14 12 7 14 19 23 21 21 20 20 18 20 17 15 15 16 15 15 15 15 12 10 8 8 9 8 6 10 11 12 12 10 10 12
4 1 5 4 6 9 13 13 12 11 16 12 11 19 19 20 20 20 18 17 15 17 17 15 15 15 16 14 14 10 9 8 10 9 8 7 11 11 10 8 8 9 9 10
5 4 6 12 14 12 12 14 19 12 11 12 16 18 18 18 19 19 17 17 16 16 16 14 14 14 16 13 7 5 5 8 8 8 8 11 11 10 10 8 6 7 6 8
4 4 4 7 15 16 16 14 11 10 14 16 19 17 15 17 18 18 16 15 15 16 16 16 16 14 13 9 5 5 5 8 8 10 10 11 10 9 9 10 12 22 14 17
Wind_Direction
3 57 257 246 177 208 232 203 242 262 273 305 256 268 259 269 288 272 333 327 327 336 307 317 326 335 337 335 328 314 286 244 200 205 201 213 204 206 204 200 199 193 193 195
18 268 230 259 179 194 200 225 272 289 284 309 290 286 294 229 246 305 214 310 338 337 341 344 345 346 352 326 324 336 309 284 223 209 200 195 189 215 210 205 206 191 200 196
159 244 179 228 173 52 281 177 263 244 294 257 289 285 236 298 257 281 309 323 324 301 328 341 341 345 343 344 339 335 336 323 256 243 210 120 103 82 136 185 180 204 198 198
225 294 292 282 232 121 321 194 246 279 328 300 94 286 312 1 297 257 300 313 319 356 353 343 349 345 344 331 326 324 343 357 316 257 235 213 212 203 200 197 207 203 198 205
251 286 294 265 232 152 233 326 269 286 266 5 326 43 268 295 265 272 310 298 277 314 49 15 337 328 330 331 333 329 347 350 347 324 256 247 235 237 282 192 196 198 197 194
243 296 75 118 29 109 324 332 14 50 72 17 249 106 273 258 213 280 286 265 248 4 349 1 0 324 341 337 341 341 354 345 341 346 300 250 251 240 206 272 186 193 189 196
337 334 335 67 26 5 44 42 336 348 2 233 353 328 242 256 225 233 261 275 325 12 351 337 343 335 337 335 332 340 344 339 336 336 322 276 246 243 231 213 217 206 170 178
51 320 338 174 202 243 216 144 154 268 244 272 286 243 255 246 261 240 267 237 211 298 307 306 311 319 317 318 335 337 336 332 331 329 317 305 264 231 223 219 185 155 312 166
295 258 282 280 171 125 184 176 192 144 259 284 245 289 304 275 265 273 267 239 254 264 286 293 296 278 291 330 338 332 326 320 317 318 315 300 286 241 212 185 167 171 173 201
260 291 251 296 343 156 162 161 57 350 266 253 252 252 239 286 286 298 293 280 271 277 293 298 314 310 323 332 327 326 316 302 302 305 311 298 297 252 221 189 192 184 175 183
166 139 274 11 222 211 195 197 130 181 199 225 290 246 216 236 277 271 269 280 277 289 300 306 303 292 310 318 321 316 312 303 302 309 314 307 302 274 230 215 221 169 161 184
199 179 245 246 256 205 192 205 159 149 221 231 245 269 246 265 262 258 284 316 315 296 289 293 288 297 312 312 308 302 307 307 300 301 306 311 293 285 249 215 211 163 161 153
198 307 326 322 359 348 198 206 209 95 30 250 265 263 273 282 301 298 307 327 322 311 310 305 310 314 312 306 306 299 300 301 306 309 312 310 305 285 278 231 265 129 142 171
193 202 197 235 265 226 261 261 235 219 252 260 246 281 293 291 286 304 334 318 302 298 301 304 310 307 304 300 303 301 294 292 303 314 308 306 312 297 257 229 219 139 26 218
141 239 233 249 262 264 269 271 270 244 251 255 276 276 281 297 318 310 300 287 306 308 311 306 304 302 300 298 302 305 299 298 304 308 305 300 310 294 237 233 208 88 191 214
235 276 300 273 256 259 267 263 259 269 269 261 267 277 8 311 294 297 304 305 301 301 296 297 305 308 306 305 300 300 300 295 300 301 297 301 308 307 253 252 193 153 191 149
231 232 304 269 320 309 286 260 265 288 290 203 283 302 340 329 315 310 304 294 293 293 298 300 310 304 302 298 296 291 289 286 287 289 292 298 300 303 305 170 170 166 172 109
198 207 215 278 332 274 239 89 190 306 267 267 281 341 329 311 301 304 286 283 295 306 308 306 301 300 300 295 286 286 279 279 280 280 284 288 292 301 268 131 124 118 104 103
164 121 305 247 240 286 291 46 352 295 295 289 1 318 317 323 310 299 262 320 308 303 302 300 299 294 292 289 286 285 282 274 267 267 274 279 285 290 210 153 128 126 105 106
323 206 151 336 267 285 246 298 303 145 289 158 330 309 320 328 308 304 323 311 302 298 299 299 296 292 287 286 285 277 273 262 255 256 262 271 278 270 203 117 124 106 100 96
312 310 226 240 244 276 218 324 325 7 292 313 308 306 307 303 285 294 304 301 300 301 301 295 292 287 285 285 280 276 274 260 244 248 257 263 260 219 148 113 119 112 114 107
256 176 250 298 271 283 179 353 110 260 300 286 289 294 299 294 297 297 297 298 300 297 296 293 291 288 285 280 276 268 258 255 222 225 247 254 253 137 122 121 118 109 124 106
276 200 251 204 232 268 296 292 287 281 293 289 277 301 301 295 298 299 299 298 295 293 292 295 288 285 279 278 270 254 246 242 200 206 232 237 154 124 126 124 125 119 120 117
265 189 248 314 261 275 294 299 295 303 295 302 301 298 297 295 297 299 299 298 300 300 295 292 288 283 284 286 286 238 245 197 186 196 215 171 125 120 118 119 122 130 129 127
260 247 237 260 282 299 280 303 295 307 313 300 301 303 298 298 304 300 301 302 299 297 295 292 285 283 283 287 252 200 185 172 177 192 160 125 111 109 99 80 105 118 112 133
202 239 279 283 296 289 297 294 318 312 314 312 309 310 310 304 300 304 302 301 298 296 295 292 286 281 278 276 188 182 187 171 176 141 121 116 112 111 105 99 83 51 84 95